Regional Weather Roundup
Issued by NWS

Home | Current Version | Previous Version | Text Only | Print | Product List | Glossary On
Versions: 1 2 3 4 5 6 7 8 9 10 11 12 13 14 15 16 17 18 19 20 21 22 23 24 25 26 27 28 29 30 31 32 33 34 35 36 37 38 39 40 41 42 43 44 45 46 47 48 49 50
000
ASUS43 KOAX 211902
RWRNE

WEATHER ROUNDUP FOR NEBRASKA
NATIONAL WEATHER SERVICE OMAHA NE
200 PM CDT THU AUG 21 2014

NOTES: SATELLITE DATA IS BEING USED TO AUGMENT CLOUD COVER ABOVE
       12000 FEET.
       "FAIR" INDICATES FEW OR NO CLOUDS BELOW 12,000 FEET WITH NO
       SIGNIFICANT WEATHER AND/OR OBSTRUCTIONS TO VISIBILITY.

  * THESE STATIONS DO NOT REPORT WEATHER SUCH AS RAIN...SNOW OR FOG.

NEZ001>004-019>022-054>056-212000-
NEBRASKA PANHANDLE

CITY           SKY/WX    TMP DP  RH WIND       PRES   REMARKS
SCOTTSBLUFF    SUNNY     85  54  34 NW5       30.02S
ALLIANCE       SUNNY     85  49  28 N9        30.00F
CHADRON        MOSUNNY   85  53  33 VRB3      29.96F
KIMBALL        SUNNY     82  43  25 W6G18     30.06S
SIDNEY         SUNNY     86  50  28 N12G18    30.04S
$$

NEZ057>060-069>072-079>082-212000-
SOUTHWEST NEBRASKA

CITY           SKY/WX    TMP DP  RH WIND       PRES   REMARKS
NORTH PLATTE   SUNNY     89  62  40 SE6       29.91S
IMPERIAL       SUNNY     88  54  31 NW10G16   29.96S
LEXINGTON      SUNNY     86  69  55 NW6       29.89S HX  90
MCCOOK         SUNNY     93  56  28 VRB5      29.90S HX  91
OGALLALA       SUNNY     86  53  31 CALM      29.95S
$$

NEZ005>010-023>029-035>040-094-212000-
NORTH CENTRAL NEBRASKA

CITY           SKY/WX    TMP DP  RH WIND       PRES   REMARKS
VALENTINE      SUNNY     85  59  41 N12       29.92S
AINSWORTH      SUNNY     82  60  47 NE8       29.92S
BROKEN BOW     SUNNY     86  68  54 N6        29.90F
O`NEILL        SUNNY     83  69  60 CALM      29.88S
ORD            SUNNY     85  68  56 VRB5      29.86S
THEDFORD       SUNNY     85  61  43 NE6       29.95S
$$

NEZ041-046>049-061>064-073>077-083>087-212000-
SOUTH CENTRAL NEBRASKA

CITY           SKY/WX    TMP DP  RH WIND       PRES   REMARKS
GRAND ISLAND   MOSUNNY   87  70  56 S10       29.87R HX  92
AURORA         MOSUNNY   81  71  71 S9        29.86R
HASTINGS       PTSUNNY   80  68  66 S6        29.87R
HEBRON         PTSUNNY   86  71  62 SE7       29.84F HX  91
HOLDREGE       SUNNY     85  70  60 W7        29.88S
KEARNEY *      MOSUNNY   82  72  69 S8        29.89R
YORK           PTSUNNY   81 N/A N/A SW9       29.86S
$$

NEZ011>018-030>034-042>045-212000-
NORTHEAST NEBRASKA

CITY           SKY/WX    TMP DP  RH WIND       PRES   REMARKS
NORFOLK        SUNNY     89  71  55 W8        29.82S HX  95
ALBION         SUNNY     87  67  52 NW8       29.85S HX  90
BLAIR          PTSUNNY   88  71  57 S12       29.85R HX  93
FREMONT        MOSUNNY   89  69  51 S8        29.84S HX  93
TEKAMAH        MOSUNNY   91  71  51 SW13      29.81R HX  97
WAYNE          SUNNY     87  74  64 W7        29.83R HX  96
$$

NEZ050>053-065>068-078-088>093-212000-
SOUTHEAST NEBRASKA

CITY           SKY/WX    TMP DP  RH WIND       PRES   REMARKS
LINCOLN        PTSUNNY   85  70  60 SW8       29.85R
OMAHA EPPLEY   PTSUNNY   87  69  54 SW12      29.83R HX  91
BEATRICE       LGT RAIN  84  73  70 SW10      29.86R HX  90
FALLS CITY     MOSUNNY   96  74  48 S16G24    29.82F HX 107
NEBRASKA CITY  CLOUDY    86  71  61 W5        29.84R HX  92
PLATTSMOUTH    CLOUDY    83  71  66 SW5       29.85S
$$

NEZ044-045-051>053-067-212000-
OMAHA AREA

CITY           SKY/WX    TMP DP  RH WIND       PRES   REMARKS
OMAHA EPPLEY   PTSUNNY   87  69  54 SW12      29.83R HX  91
BLAIR          PTSUNNY   88  71  57 S12       29.85R HX  93
FREMONT        MOSUNNY   89  69  51 S8        29.84S HX  93
MILLARD        PTSUNNY   86  72  62 SW5       29.84R HX  91
OFFUTT AFB     PTSUNNY   85  75  70 SW9       29.84R HX  94
PLATTSMOUTH    CLOUDY    83  71  66 SW5       29.85S
WAHOO          FAIR      88  68  50 SW7       29.84R HX  91
$$


USA.gov is the U.S. government's official web portal to all federal, state and local government web resources and services.